Nos coordonnées

Nous sommes à votre écoute du lundi au dimanche de 10:00 à 19:00 au :

+32 (0)495 19 89 53

 

Adresse d'exploitation Adresse de facturation
Chaussée de Nivelles, 629
6230 Buzet
Belgique
Kouter 107/2
9000 Gent
Belgique

contact @ blackhelicopters.be (n'oubliez pas de supprimer les espaces)


Nous retrouver

Il est très fortement conseillé de nous appeler avant de venir sur le terrain, nous pouvons être en mission ou en vol!

 

La carte ci-dessous est interactive, cherchez vos itinéraires, déplacez la pour vous retrouver.

News

Votre panier

Le panier est vide

Météo Charleroi

METAR
EBCI 301150Z 04008KT 360V080 9999 FEW030 06/M05 Q1030 NOSIG =
EBCI 301115Z 3012/3118 03008KT 9999 SCT045 PROB30 TEMPO 3020/3024 BKN014 PROB40 TEMPO 3100/3108 BKN006
TAF
EBCI 301115Z 3012/3118 03008KT 9999 SCT045 PROB30 TEMPO 3020/3024 BKN014 PROB40 TEMPO 3100/3108 BKN006 =
Lever / Coucher : 05:21 / 18:13 UTC (Buzet 2020-03-30)